KUG295 OMDB-OEJN

Flight info

Callsign KUG295
Flight time N/A
Altitude 40000
Route NABIX P699 OXARI M430 KSA G782 RGB M309 VEMEM
Aircraft A346/H-SDE2E3FGHIJ3J4J5M1RWXY/LB1D1

Departure

Time 2026-04-22 14:55
Airport Dubai International Airport (OMDB)

Arrival

Time N/A
Airport King Abdulaziz International Airport (OEJN)
Time Latitude Longitude Altitude Speed Heading
2026-04-22 14:22 25.23465 55.38987 33 ft 0 kts 259°
2026-04-22 14:44 25.23466 55.38989 30 ft 1 kts 259°
2026-04-22 14:44 25.23468 55.39008 29 ft 3 kts 262°
2026-04-22 14:45 25.23471 55.39030 29 ft 3 kts 263°
2026-04-22 14:45 25.23474 55.39052 32 ft 3 kts 261°
2026-04-22 14:45 25.23476 55.39067 33 ft 3 kts 261°
2026-04-22 14:45 25.23478 55.39088 30 ft 3 kts 272°
2026-04-22 14:46 25.23475 55.39108 30 ft 3 kts 287°
2026-04-22 14:46 25.23467 55.39128 27 ft 3 kts 300°
2026-04-22 14:46 25.23456 55.39146 28 ft 3 kts 303°
2026-04-22 14:46 25.23450 55.39157 28 ft 0 kts 301°
2026-04-22 14:47 25.23450 55.39158 28 ft 0 kts 301°
2026-04-22 14:49 25.23454 55.39149 28 ft 4 kts 301°
2026-04-22 14:49 25.23481 55.39100 30 ft 11 kts 300°
2026-04-22 14:49 25.23534 55.39014 30 ft 14 kts 323°
2026-04-22 14:49 25.23642 55.39001 30 ft 17 kts 342°
2026-04-22 14:50 25.23721 55.38893 30 ft 20 kts 301°
2026-04-22 14:50 25.23798 55.38753 30 ft 23 kts 301°
2026-04-22 14:50 25.23853 55.38653 30 ft 13 kts 301°
2026-04-22 14:50 25.23914 55.38570 30 ft 15 kts 336°
2026-04-22 14:51 25.23935 55.38566 30 ft 0 kts
2026-04-22 14:52 25.24015 55.38604 30 ft 29 kts 28°
2026-04-22 14:52 25.24165 55.38697 30 ft 19 kts 21°
2026-04-22 14:52 25.24269 55.38630 30 ft 21 kts 301°
2026-04-22 14:52 25.24349 55.38485 30 ft 23 kts 302°
2026-04-22 14:53 25.24438 55.38326 30 ft 25 kts 301°
2026-04-22 14:53 25.24523 55.38173 30 ft 18 kts 301°
2026-04-22 14:53 25.24589 55.38070 30 ft 14 kts 325°
2026-04-22 14:53 25.24627 55.38060 30 ft 0 kts
2026-04-22 14:54 25.24650 55.38065 30 ft 10 kts 15°
2026-04-22 14:54 25.24773 55.38070 30 ft 28 kts 321°
2026-04-22 14:54 25.24942 55.37781 31 ft 74 kts 301°
2026-04-22 14:54 25.25347 55.37056 31 ft 151 kts 302°
2026-04-22 14:55 25.26000 55.35847 295 ft 204 kts 302°
2026-04-22 14:55 25.26775 55.34431 1171 ft 216 kts 303°
2026-04-22 14:55 25.27528 55.33058 2215 ft 203 kts 302°
2026-04-22 14:55 25.28216 55.31739 3091 ft 194 kts 295°
2026-04-22 14:56 25.28634 55.30354 3845 ft 187 kts 277°
2026-04-22 14:56 25.28662 55.28929 4594 ft 181 kts 263°
2026-04-22 14:56 25.28512 55.27507 5098 ft 194 kts 263°
2026-04-22 14:56 25.28391 55.25921 5410 ft 219 kts 263°
2026-04-22 14:57 25.28239 55.24169 5879 ft 235 kts 263°
2026-04-22 14:57 25.28063 55.22330 6456 ft 245 kts 262°
2026-04-22 14:57 25.27873 55.20415 7089 ft 253 kts 262°
2026-04-22 14:57 25.27677 55.18460 7798 ft 259 kts 262°
2026-04-22 14:58 25.27473 55.16460 8538 ft 264 kts 262°
2026-04-22 14:58 25.27263 55.14426 9313 ft 268 kts 262°
2026-04-22 14:58 25.27049 55.12368 10071 ft 271 kts 262°
2026-04-22 14:58 25.26829 55.10285 10821 ft 274 kts 262°
2026-04-22 14:59 25.26605 55.08180 11598 ft 276 kts 262°
2026-04-22 14:59 25.26378 55.06061 12406 ft 279 kts 262°
2026-04-22 14:59 25.26146 55.03926 13239 ft 281 kts 262°
2026-04-22 14:59 25.25913 55.01795 14009 ft 283 kts 262°
2026-04-22 15:00 25.25672 54.99622 14786 ft 284 kts 262°
2026-04-22 15:00 25.25488 54.97441 15573 ft 286 kts 268°
2026-04-22 15:00 25.25611 54.95202 16211 ft 295 kts 274°
2026-04-22 15:00 25.25812 54.92924 16913 ft 300 kts 274°
2026-04-22 15:01 25.25939 54.90608 17668 ft 303 kts 271°
2026-04-22 15:01 25.25978 54.88262 18408 ft 306 kts 270°
2026-04-22 15:01 25.25999 54.85891 19007 ft 313 kts 269°
2026-04-22 15:01 25.25994 54.83416 19320 ft 330 kts 269°
2026-04-22 15:02 25.25995 54.80812 19604 ft 347 kts 269°
2026-04-22 15:02 25.26006 54.78083 19882 ft 363 kts 270°
2026-04-22 15:02 25.26026 54.75229 20167 ft 379 kts 270°
2026-04-22 15:02 25.26052 54.72285 20434 ft 394 kts 270°
2026-04-22 15:03 25.26081 54.69193 20714 ft 407 kts 270°
2026-04-22 15:03 25.26113 54.66022 21233 ft 414 kts 270°
2026-04-22 15:03 25.26147 54.62821 21909 ft 417 kts 270°
2026-04-22 15:03 25.26181 54.59604 22568 ft 420 kts 269°
2026-04-22 15:04 25.26215 54.56363 23193 ft 423 kts 269°
2026-04-22 15:04 25.26248 54.53092 23730 ft 427 kts 269°
2026-04-22 15:04 25.26280 54.49797 24263 ft 429 kts 269°
2026-04-22 15:04 25.26311 54.46532 24801 ft 432 kts 270°
2026-04-22 15:05 25.26343 54.43154 25379 ft 435 kts 270°
2026-04-22 15:05 25.26374 54.39804 25962 ft 437 kts 270°
2026-04-22 15:05 25.26405 54.36478 26515 ft 439 kts 270°
2026-04-22 15:05 25.26436 54.33041 27061 ft 442 kts 270°
2026-04-22 15:06 25.26465 54.29676 27594 ft 445 kts 270°
2026-04-22 15:06 25.26495 54.26240 28108 ft 448 kts 270°
2026-04-22 15:06 25.26523 54.22785 28715 ft 449 kts 270°
2026-04-22 15:06 25.26551 54.19346 29486 ft 445 kts 270°
2026-04-22 15:07 25.26577 54.15937 30234 ft 441 kts 271°
2026-04-22 15:07 25.26603 54.12549 30904 ft 439 kts 271°
2026-04-22 15:07 25.26628 54.09183 31555 ft 436 kts 271°
2026-04-22 15:07 25.26653 54.05829 32184 ft 435 kts 271°
2026-04-22 15:08 25.26677 54.02490 32814 ft 433 kts 271°
2026-04-22 15:08 25.26699 53.99170 33432 ft 431 kts 271°
2026-04-22 15:08 25.26719 53.95859 34061 ft 428 kts 271°
2026-04-22 15:08 25.26739 53.92589 34724 ft 422 kts 271°
2026-04-22 15:09 25.26759 53.89368 35405 ft 416 kts 272°
2026-04-22 15:09 25.26778 53.86184 36055 ft 410 kts 272°
2026-04-22 15:09 25.26796 53.83046 36690 ft 405 kts 272°
2026-04-22 15:09 25.26812 53.79992 37271 ft 400 kts 272°
2026-04-22 15:10 25.26829 53.76933 37825 ft 396 kts 272°
2026-04-22 15:10 25.26844 53.73897 38338 ft 392 kts 272°
2026-04-22 15:10 25.26860 53.70887 38674 ft 391 kts 272°
2026-04-22 15:10 25.26876 53.67877 38888 ft 392 kts 272°
2026-04-22 15:11 25.26891 53.64852 39064 ft 394 kts 272°
2026-04-22 15:11 25.26905 53.61819 39231 ft 395 kts 272°
2026-04-22 15:11 25.26918 53.58770 39414 ft 396 kts 272°
2026-04-22 15:11 25.26931 53.55716 39607 ft 398 kts 272°
2026-04-22 15:12 25.26942 53.52654 39764 ft 399 kts 272°
2026-04-22 15:12 25.26952 53.49577 39778 ft 400 kts 272°
2026-04-22 15:12 25.26971 53.43463 39791 ft 400 kts 272°
2026-04-22 15:13 25.26987 53.37307 39797 ft 400 kts 272°
2026-04-22 15:13 25.27001 53.31152 39798 ft 400 kts 272°
2026-04-22 15:14 25.27012 53.24996 39792 ft 400 kts 272°
2026-04-22 15:14 25.27022 53.18839 39796 ft 400 kts 272°
2026-04-22 15:15 25.27028 53.12689 39797 ft 400 kts 272°
2026-04-22 15:15 25.27032 53.06537 39797 ft 400 kts 272°
2026-04-22 15:16 25.27034 53.00426 39800 ft 400 kts 271°
2026-04-22 15:16 25.27033 52.94287 39800 ft 399 kts 271°
2026-04-22 15:17 25.27029 52.88147 39803 ft 399 kts 271°
2026-04-22 15:17 25.27023 52.82006 39802 ft 399 kts 271°
2026-04-22 15:18 25.27015 52.75870 39797 ft 399 kts 271°
2026-04-22 15:18 25.27004 52.69728 39823 ft 399 kts 271°
2026-04-22 15:19 25.26936 52.63590 39811 ft 399 kts 270°
2026-04-22 15:19 25.26832 52.57456 39808 ft 399 kts 270°
2026-04-22 15:20 25.26730 52.51360 39799 ft 398 kts 271°
2026-04-22 15:20 25.26628 52.45227 39807 ft 398 kts 271°
2026-04-22 15:21 25.26524 52.39093 39811 ft 398 kts 271°
2026-04-22 15:21 25.26419 52.32966 39810 ft 398 kts 270°
2026-04-22 15:22 25.26310 52.26815 39815 ft 398 kts 270°
2026-04-22 15:22 25.26200 52.20688 39818 ft 398 kts 270°
2026-04-22 15:23 25.26087 52.14564 39818 ft 398 kts 270°
2026-04-22 15:23 25.25972 52.08483 39819 ft 398 kts 270°
2026-04-22 15:24 25.25855 52.02363 39819 ft 398 kts 270°
2026-04-22 15:24 25.25734 51.96243 39811 ft 397 kts 270°
2026-04-22 15:25 25.25611 51.90135 39801 ft 397 kts 270°
2026-04-22 15:25 25.25486 51.84029 39798 ft 397 kts 270°
2026-04-22 15:26 25.25360 51.77924 39800 ft 396 kts 270°
2026-04-22 15:26 25.25230 51.71835 39795 ft 396 kts 270°
2026-04-22 15:27 25.25097 51.65755 39792 ft 396 kts 270°
2026-04-22 15:27 25.25103 51.59671 39791 ft 395 kts 274°
2026-04-22 15:28 25.25434 51.53605 39785 ft 395 kts 274°
2026-04-22 15:28 25.25776 51.47536 39786 ft 395 kts 274°
2026-04-22 15:29 25.26122 51.41466 39787 ft 395 kts 274°
2026-04-22 15:30 25.26582 51.33394 39787 ft 395 kts 274°
2026-04-22 15:30 25.26956 51.26339 39786 ft 395 kts 272°
2026-04-22 15:31 25.26956 51.20254 39790 ft 396 kts 271°
2026-04-22 15:31 25.26900 51.14158 39792 ft 396 kts 271°
2026-04-22 15:32 25.26833 51.08065 39796 ft 396 kts 271°
2026-04-22 15:32 25.26760 51.01978 39802 ft 396 kts 271°
2026-04-22 15:33 25.26684 50.95894 39817 ft 396 kts 271°
2026-04-22 15:33 25.26619 50.90832 39816 ft 396 kts 271°
2026-04-22 15:34 25.26540 50.84740 39813 ft 396 kts 270°
2026-04-22 15:34 25.26457 50.78636 39818 ft 396 kts 270°
2026-04-22 15:35 25.26373 50.72540 39822 ft 396 kts 270°
2026-04-22 15:35 25.26284 50.66429 39820 ft 396 kts 270°
2026-04-22 15:36 25.26195 50.60337 39823 ft 396 kts 270°
2026-04-22 15:36 25.26101 50.54244 39825 ft 396 kts 270°
2026-04-22 15:37 25.26132 50.48171 39819 ft 396 kts 272°
2026-04-22 15:37 25.26256 50.42079 39821 ft 396 kts 272°
2026-04-22 15:38 25.26379 50.35984 39819 ft 396 kts 272°
2026-04-22 15:38 25.26562 50.26857 39831 ft 394 kts 272°
2026-04-22 15:39 25.26681 50.20788 39825 ft 394 kts 272°
2026-04-22 15:39 25.26797 50.14714 39828 ft 394 kts 272°
2026-04-22 15:40 25.26911 50.08650 39830 ft 394 kts 272°
2026-04-22 15:40 25.27023 50.02586 39829 ft 394 kts 272°
2026-04-22 15:41 25.27132 49.96562 39826 ft 394 kts 272°
2026-04-22 15:41 25.27239 49.90491 39828 ft 395 kts 272°
2026-04-22 15:42 25.27344 49.84412 39828 ft 395 kts 272°
2026-04-22 15:42 25.27446 49.78337 39830 ft 395 kts 272°
2026-04-22 15:43 25.27546 49.72250 39832 ft 395 kts 272°
2026-04-22 15:43 25.27643 49.66214 39843 ft 395 kts 272°
2026-04-22 15:44 25.27738 49.60133 39861 ft 395 kts 271°
2026-04-22 15:44 25.27832 49.54064 39851 ft 394 kts 271°
2026-04-22 15:45 25.27777 49.47998 39845 ft 395 kts 268°
2026-04-22 15:45 25.27305 49.41938 39848 ft 395 kts 266°
2026-04-22 15:46 25.26772 49.35882 39845 ft 395 kts 266°
2026-04-22 15:46 25.26228 49.29823 39847 ft 395 kts 265°
2026-04-22 15:47 25.25684 49.23810 39847 ft 395 kts 265°
2026-04-22 15:47 25.25129 49.17763 39848 ft 395 kts 265°
2026-04-22 15:48 25.24572 49.11716 39854 ft 395 kts 265°
2026-04-22 15:48 25.24011 49.05667 39854 ft 395 kts 265°
2026-04-22 15:49 25.23448 48.99614 39855 ft 395 kts 265°
2026-04-22 15:49 25.22884 48.93568 39856 ft 395 kts 265°
2026-04-22 15:50 25.22317 48.87522 39858 ft 395 kts 265°
2026-04-22 15:50 25.21747 48.81468 39858 ft 395 kts 265°
2026-04-22 15:51 25.21176 48.75422 39858 ft 395 kts 265°
2026-04-22 15:51 25.20602 48.69375 39860 ft 395 kts 265°
2026-04-22 15:52 25.20030 48.63324 39869 ft 396 kts 265°
2026-04-22 15:52 25.19446 48.57267 39869 ft 396 kts 264°
2026-04-22 15:53 25.18861 48.51211 39877 ft 396 kts 264°
2026-04-22 15:53 25.18274 48.45146 39879 ft 396 kts 264°
2026-04-22 15:54 25.17685 48.39078 39883 ft 397 kts 264°
2026-04-22 15:54 25.17093 48.33008 39884 ft 397 kts 264°
2026-04-22 15:55 25.16499 48.26936 39892 ft 397 kts 264°
2026-04-22 15:55 25.15903 48.20868 39887 ft 397 kts 264°
2026-04-22 15:56 25.15302 48.14788 39890 ft 398 kts 264°